Volver al catálogo

STARLINK-34623

ActivoComunicacionesVLEO
NORAD 65018·PAYLOAD·🇺🇸 United States

Lanzado Jul 30, 2025 desde Cape Canaveral Space Force Station

Loading…

Próximos Pases (próximas 24 horas)

TLE

ActualizadoSource: CelesTrak SupGP

Época: Sep 15, 2026, 02:50 UTC

1 65018C 25161D   26258.11854167  .00051532  00000+0  15231-2 0  2588
2 65018  53.1574 132.7560 0001243  84.0778 305.3243 15.34352036    18

Sigue STARLINK-34623 en tiempo real con AllMySat

Download on the App Store